User: anonymous   Login
Location: Unspecified
(0.0000°N, 0.0000°E)
Time: 08:51:37
(UTC+00:00)
Language:

GALILEO 9 (205) - Orbit

View from above orbital plane
View from above orbital plane
View from above satellite
View from above satellite

Ground track
Ground track

The orbit data is extracted from the following two-line orbital elements,

1 40889U 15045A   17177.40256603 -.00000068 +00000-0 +00000-0 0  9998
2 40889 057.0088 311.8796 0001838 040.1434 319.8554 01.70475023011130
Epoch (UTC): 26 June 2017 09:39:41
Eccentricity: 0.0001838
inclination: 57.0088°
perigee height: 23216 km
apogee height: 23227 km
right ascension of ascending node: 311.8796°
argument of perigee: 40.1434°
revolutions per day: 1.70475023
mean anomaly at epoch: 319.8554°
orbit number at epoch: 1113

The dashed part of the orbit path shows where the satellite is in the earth's shadow,  

DLR